Meteo Giornale » Osservazioni meteo Italia » Lamezia Terme

ore: 16:20 - Osservazioni Meteo Lamezia Terme
Lat. 38° 54' N Lon. 16° 15' E Alt. 15 metri s.l.m.

poco_nuvoloso Europe/Rome

15 °C

Poco Nuvoloso

Temp. 24 Ore

10 °C

16 °C

Est

22.2 Km/h

Dew point 8 °C

Umidità 62 %

Visibilità  10 Km

Il sole sorge alle ore 06:16

Il sole tramonta alle ore 19:33

Data e Ora Cielo e Fenomeni T °C DP °C Um. % Pres. hPa Vis. km Vento km/h
Oggi h: 16:20 poco_nuvoloso Poco Nuvoloso 15 8 62 1018 10 E 22.2
Oggi h: 15:50 poco_nuvoloso Poco Nuvoloso 15 8 62 1019 10 E 22.2
Oggi h: 15:20 poco_nuvoloso Poco Nuvoloso 15 8 62 1019 10 E 24
Oggi h: 14:50 poco_nuvoloso Poco Nuvoloso 15 8 62 1019 10 E 24
Oggi h: 14:20 molto_nuvoloso Molto Nuvoloso 15 7 58 1019 10 E/NE 18.5
Oggi h: 13:50 molto_nuvoloso Molto Nuvoloso 16 7 55 1019 10 E/NE 18.5
Oggi h: 13:20 molto_nuvoloso Molto Nuvoloso 14 7 62 1019 10 E/NE 18.5
Oggi h: 12:50 molto_nuvoloso Molto Nuvoloso 14 7 62 1019 10 E/NE 25.9
Oggi h: 12:20 molto_nuvoloso Molto Nuvoloso 15 7 58 1020 10 E/NE 24
Oggi h: 11:50 coperto Coperto 14 6 58 1020 10 E/NE 22.2
Oggi h: 11:20 molto_nuvoloso Molto Nuvoloso 14 6 58 1020 10 E/NE 24
Oggi h: 10:50 molto_nuvoloso Molto Nuvoloso 13 6 62 1020 10 E/NE 25.9
Oggi h: 10:20 molto_nuvoloso Molto Nuvoloso 14 6 58 1020 10 E/NE 27.8
Oggi h: 09:50 molto_nuvoloso Molto Nuvoloso 12 5 62 1020 10 E/NE 25.9
Oggi h: 09:20 molto_nuvoloso Molto Nuvoloso 12 5 62 1019 10 E/NE 27.8
Oggi h: 08:50 coperto Coperto 12 5 62 1019 10 NE 27.8
Oggi h: 08:20 molto_nuvoloso Molto Nuvoloso 11 5 66 1019 10 NE 24
Oggi h: 07:50 coperto Coperto 11 5 66 1019 10 NE 25.9
Oggi h: 07:20 molto_nuvoloso Molto Nuvoloso 11 5 66 1019 10 NE 24
Oggi h: 06:50 coperto Coperto 11 5 66 1019 10 NE 24
Oggi h: 06:20 coperto Coperto 11 5 66 1019 10 NE 22.2
Oggi h: 05:50 molto_nuvoloso Molto Nuvoloso 11 4 61 1019 10 NE 25.9
Oggi h: 05:20 coperto Coperto 11 5 66 1019 10 NE 25.9
Oggi h: 04:50 molto_nuvoloso Molto Nuvoloso 11 5 66 1019 10 NE 22.2
Oggi h: 04:20 molto_nuvoloso Molto Nuvoloso 11 5 66 1019 10 NE 22.2
Oggi h: 03:50 molto_nuvoloso Molto Nuvoloso 11 5 66 1019 10 NE 24
Oggi h: 03:20 molto_nuvoloso Molto Nuvoloso 11 5 66 1019 10 NE 24
Oggi h: 02:50 molto_nuvoloso Molto Nuvoloso 11 5 66 1020 10 NE 22.2
Oggi h: 01:50 molto_nuvoloso Molto Nuvoloso 11 4 61 1020 10 NE 20.3
Oggi h: 01:20 molto_nuvoloso Molto Nuvoloso 11 4 61 1020 10 NE 20.3
Oggi h: 00:50 nuvoloso Nuvoloso 11 4 61 1020 10 NE 18.5
Ieri h: 23:50 sereno Sereno 10 4 66 1020 10 NE 18.5
Ieri h: 23:20 sereno Sereno 10 5 71 1020 10 NE 18.5
Ieri h: 22:50 sereno Sereno 11 5 66 1020 10 NE 20.3
Ieri h: 22:20 sereno Sereno 11 5 66 1020 10 NE 20.3
Ieri h: 21:50 sereno Sereno 11 5 66 1020 10 NE 18.5
Ieri h: 21:20 sereno Sereno 11 5 66 1020 10 NE 18.5
Ieri h: 20:50 sereno Sereno 12 6 66 1020 10 NE 18.5
Ieri h: 20:20 sereno Sereno 12 6 66 1019 10 NE 20.3
Ieri h: 19:50 sereno Sereno 13 6 62 1019 10 E/NE 22.2
Ieri h: 19:20 poco_nuvoloso Poco Nuvoloso 13 7 66 1019 10 E/NE 20.3
Ieri h: 18:50 coperto Coperto 15 8 62 1019 10 N 13
Ieri h: 18:20 poco_nuvoloso Poco Nuvoloso 16 9 63 1019 10 O/SO 7.4
Ieri h: 17:50 sereno Sereno 16 9 63 1018 10 O/SO 14.8
Ieri h: 17:20 sereno Sereno 16 9 63 1018 10 O 13